Probability
0 0 0 0 0 0 0 0 0 0 0 0 0 0 0 0 0 0 0 0 0 0 0 0 0 0 0 0 0 0 0 0 0 0 0 0 0 0 0 0 0 0 0
0 0 0 0 0 0 0 0 0 0 0 0 0 0 0 0 0 0 0 0 0 0 0 0 0 0 0 0 0 0 0 0 0 0 0 0 0 0 0 0 0 0 0
0 0 0 0 0 0 0 0 0 0 0 0 0 0 0 0 0 0 0 0 0 0 0 0 0 0 0 0 0 0 0 0 0 0 0 0 0 0 0 0 0 0 0
0 0 0 0 0 0 0 0 0 0 0 0 0 0 0 0 0 0 0 0 0 0 0 0 0 0 0 0 0 0 0 0 0 0 0 0 0 0 0 0 0 0 0
0 0 0 0 0 0 0 0 0 0 0 0 0 0 0 0 0 0 0 0 0 0 0 0 0 0 0 0 0 0 0 0 0 0 0 0 0 0 0 0 0 0 0
0 0 0 0 0 0 0 0 0 0 0 0 0 0 0 0 0 0 0 0 0 0 0 0 0 0 0 0 0 0 0 0 0 0 0 0 0 0 0 0 0 0 0
0 0 0 0 0 0 0 0 0 0 0 0 0 0 0 0 0 0 0 0 0 0 0 0 0 0 0 0 0 0 0 0 0 0 0 0 0 0 0 0 0 0 0
0 0 0 0 0 0 0 0 0 0 0 0 0 0 0 0 0 0 0 0 0 0 0 0 0 0 0 0 0 0 0 0 0 0 0 0 0 0 0 0 0 0 0
0 0 0 0 0 0 0 0 0 0 0 0 0 0 0 0 0 0 0 0 0 0 0 0 0 0 0 0 0 0 0 0 0 0 0 0 0 0 0 0 0 0 0
0 0 0 0 0 0 0 0 0 0 0 0 0 0 0 0 0 0 0 0 0 0 0 0 0 0 0 0 0 0 0 0 0 0 0 0 0 0 0 0 0 0 0
0 0 0 0 0 0 0 0 0 0 0 0 0 0 0 0 0 0 0 0 0 0 0 0 0 0 0 0 0 0 0 0 0 0 0 0 0 0 0 0 0 0 0
0 0 0 0 0 0 0 0 0 0 0 0 0 0 0 0 0 0 0 0 0 0 0 0 0 0 0 0 0 0 0 0 0 0 0 0 0 0 0 0 0 0 0
0 0 0 0 0 0 0 0 0 0 0 0 0 0 0 0 0 0 0 0 0 0 0 0 0 0 0 0 0 0 0 0 0 0 0 0 0 0 0 0 0 0 0
0 0 0 0 0 0 0 0 0 0 0 0 0 0 0 0 0 0 0 0 0 0 0 0 0 0 0 0 0 0 0 0 0 0 0 0 0 0 0 0 0 0 0
0 0 0 0 0 0 0 0 0 0 0 0 0 0 0 0 0 0 0 0 0 0 0 0 0 0 0 0 0 0 0 0 0 0 0 0 0 0 0 0 0 0 0
0 0 0 0 0 0 0 0 0 0 0 0 0 0 0 0 0 0 0 0 0 0 0 0 0 0 0 0 0 0 0 0 0 0 0 0 0 0 0 0 0 0 0
0 0 0 0 0 0 0 0 0 0 0 0 0 0 0 0 0 0 0 0 0 0 0 0 0 0 0 0 0 0 0 0 0 0 0 0 0 0 0 0 0 0 0
0 0 0 0 0 0 0 0 0 0 0 0 0 0 0 0 0 0 0 0 0 0 0 0 0 0 0 0 0 0 0 0 0 0 0 0 0 0 0 0 0 0 0
0 0 0 0 0 0 0 0 0 0 0 0 0 0 0 0 0 0 0 0 0 0 0 0 0 0 0 0 0 0 0 0 0 0 0 0 0 0 0 0 0 0 0
0 0 0 0 0 0 0 0 0 0 0 0 0 0 0 0 0 0 0 0 0 0 0 0 0 0 0 0 0 0 0 0 0 0 0 0 0 0 0 0 0 0 0
0 0 0 0 0 0 0 0 0 0 0 0 0 0 0 0 0 0 0 0 0 0 0 0 0 0 0 0 0 0 0 0 0 0 0 0 0 0 0 0 0 0 0
0 0 0 0 0 0 0 0 0 0 0 0 0 0 0 0 0 0 0 0 0 0 0 0 0 0 0 0 0 0 0 0 0 0 0 0 0 0 0 0 0 0 0
0 0 0 0 0 0 0 0 0 0 0 0 0 0 0 0 0 0 0 0 0 0 0 0 0 0 0 0 0 0 0 0 0 0 0 0 0 0 0 0 0 0 0
0 0 0 0 0 0 0 0 0 0 0 0 0 0 0 0 0 0 0 0 0 0 0 0 0 0 0 0 0 0 0 0 0 0 0 0 0 0 0 0 0 0 0
0 0 0 0 0 0 0 0 0 0 0 0 0 0 0 0 0 0 0 0 0 0 0 0 0 0 0 0 0 0 0 0 0 0 0 0 0 0 0 0 0 0 0
0 0 0 0 0 0 0 0 0 0 0 0 0 0 0 0 0 0 0 0 0 0 0 0 0 0 0 0 0 0 0 0 0 0 0 0 0 0 0 0 0 0 0
Height
5594 5597 5599 5602 5604 5607 5609 5612 5615 5618 5622 5625 5628 5632 5635 5638 5641 5644 5647 5649 5652 5654 5656 5658 5659 5661 5662 5663 5664 5665 5666 5667 5668 5670 5669 5669 5670 5670 5669 5669 5669 5669 5668
5582 5584 5587 5589 5592 5594 5597 5600 5602 5605 5609 5612 5615 5618 5621 5624 5627 5630 5633 5635 5637 5639 5641 5643 5645 5646 5648 5649 5650 5651 5652 5652 5653 5655 5655 5655 5655 5655 5655 5655 5654 5654 5654
5569 5571 5574 5577 5579 5582 5584 5587 5590 5593 5596 5598 5601 5604 5607 5610 5613 5616 5618 5621 5623 5625 5627 5628 5630 5631 5633 5634 5635 5636 5637 5637 5637 5639 5640 5640 5640 5639 5640 5639 5639 5639 5638
5556 5558 5561 5564 5566 5569 5571 5574 5577 5580 5583 5585 5588 5591 5593 5596 5598 5601 5603 5606 5608 5610 5612 5613 5614 5616 5617 5618 5619 5620 5621 5621 5622 5623 5624 5624 5624 5623 5623 5624 5624 5623 5623
5542 5545 5548 5550 5553 5555 5558 5561 5564 5567 5569 5572 5575 5577 5580 5582 5584 5586 5589 5591 5593 5594 5596 5598 5599 5600 5601 5602 5603 5604 5604 5605 5605 5606 5607 5607 5607 5607 5607 5606 5606 5607 5607
5529 5532 5534 5537 5539 5542 5545 5547 5550 5553 5556 5559 5561 5563 5566 5568 5570 5571 5574 5576 5578 5579 5581 5582 5583 5584 5585 5585 5586 5587 5587 5588 5588 5589 5590 5590 5590 5589 5589 5588 5588 5589 5591
5516 5518 5521 5523 5526 5529 5531 5534 5536 5539 5542 5545 5547 5549 5551 5553 5555 5556 5558 5560 5562 5564 5565 5566 5567 5568 5568 5569 5569 5570 5570 5570 5570 5571 5571 5571 5571 5572 5572 5571 5570 5569 5571
5503 5505 5507 5510 5512 5515 5518 5520 5523 5525 5528 5530 5532 5534 5536 5538 5539 5541 5542 5544 5546 5548 5549 5550 5551 5552 5552 5552 5552 5553 5553 5553 5553 5553 5554 5554 5552 5551 5551 5551 5550 5550 5552
5491 5492 5494 5497 5499 5502 5504 5506 5508 5511 5513 5515 5517 5519 5521 5522 5523 5525 5526 5528 5530 5531 5532 5533 5534 5535 5535 5535 5536 5536 5536 5535 5534 5534 5534 5534 5533 5533 5532 5531 5531 5530 5532
5478 5480 5481 5483 5486 5488 5491 5492 5494 5496 5498 5500 5502 5503 5505 5507 5508 5509 5510 5512 5514 5516 5517 5517 5518 5518 5517 5517 5517 5518 5518 5517 5516 5516 5516 5515 5515 5514 5513 5512 5511 5510 5511
5465 5467 5469 5470 5473 5475 5477 5478 5480 5482 5484 5485 5487 5489 5490 5491 5493 5493 5494 5495 5497 5498 5500 5500 5500 5500 5500 5500 5500 5500 5500 5499 5498 5498 5498 5497 5497 5496 5495 5494 5492 5491 5491
5453 5454 5456 5458 5459 5461 5463 5465 5466 5468 5469 5471 5472 5474 5475 5476 5477 5478 5478 5479 5480 5481 5483 5483 5483 5483 5482 5482 5482 5482 5481 5481 5480 5480 5481 5480 5479 5479 5477 5476 5474 5473 5472
5441 5442 5444 5445 5447 5448 5450 5452 5453 5454 5456 5457 5458 5459 5460 5461 5462 5462 5462 5463 5463 5464 5465 5465 5465 5465 5465 5465 5465 5464 5464 5463 5463 5463 5463 5463 5462 5461 5460 5458 5457 5456 5455
5430 5431 5432 5433 5435 5436 5437 5439 5440 5441 5442 5444 5444 5445 5446 5447 5447 5447 5447 5447 5447 5447 5448 5448 5448 5448 5448 5448 5447 5447 5446 5446 5445 5446 5445 5445 5444 5444 5443 5441 5440 5439 5438
5419 5420 5421 5422 5423 5424 5425 5426 5427 5429 5429 5430 5431 5431 5432 5433 5432 5432 5431 5432 5431 5431 5431 5432 5432 5432 5431 5431 5430 5430 5429 5428 5428 5428 5428 5428 5428 5427 5427 5425 5424 5422 5422
5408 5409 5409 5410 5411 5412 5413 5414 5414 5415 5416 5416 5417 5417 5418 5418 5418 5417 5417 5417 5416 5416 5415 5416 5416 5416 5415 5415 5414 5414 5413 5412 5412 5412 5412 5411 5411 5411 5410 5409 5408 5407 5406
5398 5398 5399 5399 5400 5401 5401 5402 5403 5403 5403 5403 5403 5403 5404 5404 5404 5403 5403 5402 5402 5401 5401 5401 5401 5400 5400 5399 5399 5398 5398 5397 5396 5396 5396 5396 5395 5395 5394 5393 5392 5392 5391
5388 5388 5388 5389 5389 5389 5389 5390 5390 5390 5391 5390 5390 5390 5390 5390 5390 5390 5389 5389 5388 5388 5387 5386 5386 5385 5385 5384 5384 5383 5383 5382 5382 5382 5381 5380 5380 5379 5378 5378 5377 5377 5376
5378 5378 5378 5378 5378 5378 5378 5378 5378 5378 5378 5378 5378 5377 5377 5377 5377 5376 5376 5375 5375 5374 5373 5372 5372 5371 5370 5370 5370 5369 5369 5368 5368 5368 5367 5366 5365 5364 5363 5363 5362 5362 5361
5368 5367 5367 5367 5367 5367 5367 5367 5366 5366 5366 5366 5366 5365 5364 5364 5364 5364 5363 5362 5362 5361 5360 5359 5358 5358 5357 5356 5356 5355 5355 5355 5354 5354 5353 5352 5351 5350 5349 5348 5347 5347 5346
5357 5357 5357 5357 5356 5356 5356 5355 5355 5355 5354 5354 5354 5353 5352 5352 5351 5351 5350 5350 5349 5349 5348 5347 5346 5345 5344 5343 5343 5342 5342 5341 5341 5340 5340 5339 5338 5336 5335 5334 5333 5332 5331
5347 5347 5346 5346 5345 5345 5345 5345 5344 5344 5343 5343 5342 5341 5340 5340 5339 5339 5338 5338 5337 5336 5335 5335 5334 5332 5331 5330 5330 5329 5329 5329 5328 5328 5327 5326 5325 5323 5322 5321 5320 5319 5318
5337 5337 5336 5336 5335 5334 5334 5334 5334 5333 5333 5332 5331 5330 5330 5329 5328 5328 5327 5326 5325 5324 5323 5322 5322 5320 5319 5319 5318 5318 5317 5317 5316 5315 5315 5314 5312 5311 5310 5309 5308 5307 5306
5327 5327 5326 5325 5325 5324 5324 5324 5323 5323 5322 5321 5321 5320 5319 5319 5318 5317 5316 5315 5314 5313 5312 5311 5310 5309 5308 5308 5307 5307 5306 5305 5305 5304 5303 5302 5301 5299 5298 5297 5296 5295 5293
5318 5317 5317 5316 5315 5315 5315 5314 5314 5313 5312 5312 5311 5310 5309 5309 5308 5307 5306 5305 5304 5303 5301 5300 5299 5299 5298 5297 5296 5296 5295 5294 5293 5292 5291 5291 5290 5288 5287 5286 5285 5283 5282
5308 5308 5307 5306 5306 5306 5305 5305 5304 5304 5303 5302 5301 5301 5300 5299 5298 5297 5296 5295 5293 5292 5291 5290 5289 5288 5287 5287 5286 5285 5284 5283 5282 5281 5280 5280 5279 5278 5276 5275 5274 5273 5271
Wind_Speed
48 49 48 48 48 49 49 50 51 52 53 54 53 54 54 54 55 56 56 55 54 54 54 54 54 54 52 51 51 51 50 50 50 50 51 51 51 51 51 51 51 52 52
47 48 49 49 49 50 50 51 51 51 52 52 53 53 54 55 55 56 56 56 56 55 55 55 55 55 54 53 53 53 53 53 52 52 52 53 53 53 53 53 53 53 53
47 48 49 50 50 51 51 51 51 52 52 52 52 53 54 55 56 55 56 56 56 56 56 56 56 55 55 56 56 56 56 55 55 54 54 54 54 54 54 54 54 55 55
48 49 50 51 51 52 52 51 52 52 52 52 52 52 52 53 54 55 56 57 57 57 57 57 57 57 57 57 57 58 58 58 57 56 56 56 55 55 55 55 56 56 56
49 50 50 51 52 52 52 53 53 53 53 53 52 53 53 53 54 54 55 56 57 57 57 57 58 58 59 58 59 59 60 60 60 59 58 58 58 58 58 57 58 57 57
48 49 50 51 51 52 52 53 53 54 54 54 53 53 54 54 54 55 56 56 56 56 56 56 57 58 59 60 60 60 61 62 62 62 61 61 60 61 60 60 60 60 59
47 48 49 49 50 51 52 52 52 53 53 54 54 54 54 55 55 56 56 56 55 56 56 56 57 57 58 60 60 61 62 63 63 63 63 62 62 63 62 62 62 62 61
46 47 48 48 49 50 50 51 51 52 53 54 54 55 55 55 55 55 56 56 57 57 58 58 58 59 59 59 60 61 62 63 63 64 64 64 64 63 63 63 64 63 63
45 46 47 47 48 49 50 51 51 52 53 53 53 54 54 55 56 57 57 56 56 57 57 57 58 58 58 59 60 60 61 61 61 62 62 63 63 63 64 64 65 65 63
45 45 46 47 47 48 48 49 51 52 52 53 53 53 54 55 56 56 57 57 57 57 57 57 57 58 58 59 60 60 60 60 60 60 61 61 62 63 63 64 64 65 65
44 44 44 45 46 46 46 47 48 49 50 50 52 52 53 54 54 55 56 57 57 57 57 57 58 58 59 59 59 59 59 59 59 59 59 59 60 61 61 61 62 62 62
41 42 43 43 43 44 45 45 46 46 47 48 48 50 51 51 53 54 55 56 56 56 57 57 58 59 60 60 59 59 59 59 59 58 57 57 57 58 58 59 59 60 60
39 40 41 41 42 43 43 43 44 44 45 46 47 47 48 49 51 52 53 54 55 56 56 56 57 58 58 59 59 59 59 59 58 57 57 56 56 57 57 57 57 58 58
37 38 39 40 41 41 42 41 42 42 43 44 44 45 46 48 49 50 51 52 52 53 54 54 54 55 56 57 57 58 58 58 57 56 56 56 56 56 56 55 55 55 55
36 36 38 38 39 40 40 41 41 42 43 43 43 44 45 46 47 48 49 49 50 51 51 51 52 52 53 53 54 54 54 55 55 55 54 54 54 54 54 53 54 53 53
34 34 36 37 38 39 40 40 41 42 43 43 43 43 44 44 45 46 47 47 47 48 48 49 49 50 50 50 51 51 51 51 52 52 52 52 52 52 52 52 52 52 51
32 32 33 34 35 36 38 39 40 41 41 42 42 42 43 43 43 44 44 45 45 46 46 47 47 47 48 48 48 48 48 48 49 49 50 50 51 51 51 51 50 50 50
32 32 32 33 34 35 36 37 38 39 40 41 41 42 42 42 42 42 42 43 43 44 45 45 45 46 46 46 46 46 46 46 47 47 47 48 48 49 49 50 50 49 49
31 32 32 33 33 34 35 36 36 37 38 39 40 41 41 41 41 41 41 42 42 43 43 44 44 44 44 44 44 44 45 45 46 46 46 46 46 47 47 48 49 49 49
31 31 32 33 33 34 34 35 35 36 36 37 38 39 39 40 40 41 41 41 41 41 42 42 43 43 43 43 43 43 43 44 44 45 44 44 44 45 45 46 47 48 48
30 31 32 33 33 33 34 34 35 35 36 36 37 37 37 38 38 39 39 40 40 40 40 40 41 41 41 41 41 41 41 41 41 41 42 42 43 43 43 44 44 45 45
31 31 32 33 33 33 33 33 34 34 35 35 35 35 35 35 35 36 36 37 37 37 38 38 38 38 38 38 38 38 38 38 39 40 40 40 41 41 41 42 42 43 43
30 31 31 31 31 31 32 32 33 33 33 33 33 33 33 34 34 34 34 35 35 36 36 36 36 36 36 36 36 36 36 36 37 38 38 38 38 39 39 40 40 40 41
30 30 30 30 30 30 30 30 30 30 30 30 30 31 31 32 32 33 33 34 35 35 35 35 35 35 35 35 35 35 35 35 36 36 36 36 36 37 37 37 37 37 38
29 29 29 29 28 28 28 28 28 28 28 29 29 30 30 31 31 32 32 33 33 33 34 34 34 34 34 34 34 34 34 35 35 34 34 34 34 34 34 35 35 35 35
28 28 28 27 27 27 27 27 27 28 28 29 29 29 29 30 30 31 31 31 31 31 32 32 33 33 33 33 33 33 33 32 32 33 33 33 33 33 33 33 33 32 32
Wind_Direction
251 251 251 251 251 251 251 252 252 251 251 251 252 252 252 253 254 255 256 256 257 258 259 261 262 263 263 263 263 264 265 266 266 267 267 267 267 268 268 269 270 270 271
251 251 251 252 251 251 252 251 251 251 251 252 253 253 253 253 254 255 256 256 257 258 259 260 261 262 263 263 264 264 265 266 267 267 267 267 268 268 268 269 270 270 271
251 251 251 251 251 251 252 252 252 252 253 253 253 254 255 255 256 256 256 257 259 259 259 260 261 261 262 263 264 265 266 266 266 267 268 268 268 268 268 270 270 270 271
251 251 251 250 251 252 252 252 252 253 254 254 254 255 256 257 258 258 258 259 259 260 260 261 261 261 262 263 264 265 266 266 267 267 267 267 267 268 268 269 270 270 270
252 252 252 251 251 252 253 253 252 253 254 255 255 256 257 258 258 258 259 260 260 260 261 261 262 263 263 264 265 266 266 267 268 268 268 268 268 267 268 269 269 269 270
254 254 253 253 252 253 253 253 253 254 255 255 256 258 258 259 259 259 260 260 260 261 261 262 263 264 265 266 267 267 267 267 268 268 269 269 269 268 269 269 269 269 269
255 255 255 254 254 254 255 255 255 255 256 256 257 258 259 259 260 261 261 261 261 262 262 263 264 264 265 266 267 268 268 269 269 269 269 270 270 269 269 270 270 270 269
255 255 255 255 255 255 255 256 256 257 257 258 258 258 259 260 261 262 262 262 262 262 263 264 265 266 267 268 268 269 269 269 270 269 269 270 270 270 270 271 271 271 271
256 257 256 255 255 255 256 257 257 258 258 259 259 259 259 260 261 261 262 262 263 263 264 264 265 267 268 269 269 270 270 270 270 269 270 270 270 270 271 271 271 272 271
258 258 256 255 256 257 258 258 258 259 259 259 259 260 260 260 261 261 262 263 263 264 264 265 266 267 268 269 270 270 270 270 270 271 270 271 270 271 272 272 272 272 272
260 259 257 256 256 257 258 258 259 259 259 260 260 260 261 262 262 263 263 263 264 264 265 266 266 267 268 269 270 270 271 271 271 271 271 271 271 271 272 272 273 273 274
260 259 258 257 257 257 258 258 259 260 260 261 261 261 262 262 263 263 264 265 265 266 267 267 267 268 269 269 270 271 271 271 271 272 271 271 271 272 272 272 273 274 274
260 259 259 258 258 258 258 259 259 260 261 262 262 262 263 263 264 265 265 266 267 267 268 268 269 269 269 269 270 271 272 272 271 271 271 271 271 272 272 273 274 274 273
261 260 259 258 258 259 259 259 260 261 261 262 262 263 264 265 265 266 267 267 268 269 269 269 270 270 270 270 271 271 271 271 271 271 270 270 271 271 272 273 274 274 273
263 261 260 260 259 259 260 260 261 262 262 262 263 264 265 266 267 268 269 269 269 270 270 270 271 271 271 272 271 271 271 270 270 270 270 270 270 271 272 273 274 274 274
264 264 263 262 260 260 260 261 262 263 264 265 266 266 267 267 267 268 269 269 270 271 271 272 272 272 272 272 272 271 271 271 270 270 270 271 271 271 272 273 274 274 274
265 266 265 264 264 263 263 263 263 264 265 266 267 268 269 268 268 268 269 270 271 271 272 273 273 273 273 273 273 272 272 272 272 271 271 271 272 272 272 272 273 274 274
265 266 266 266 266 266 266 265 265 266 266 267 268 269 269 269 269 270 270 271 272 273 273 274 274 274 274 274 273 273 273 273 273 273 274 273 273 273 273 272 273 274 274
266 266 266 266 267 267 267 267 267 268 269 269 270 270 271 270 271 272 273 273 274 275 275 275 275 275 275 274 274 274 274 273 273 274 275 275 275 275 274 274 274 274 274
267 267 267 268 268 268 268 269 269 270 270 271 271 272 272 272 272 273 274 275 275 276 276 276 276 276 276 275 275 275 274 274 274 275 275 276 276 276 275 275 275 274 273
269 269 269 269 270 270 270 270 270 271 271 272 273 274 274 273 273 273 274 274 275 276 276 277 277 277 277 276 276 275 275 275 275 275 276 277 277 278 277 276 276 276 274
271 271 271 272 271 271 270 270 271 271 273 274 274 274 274 274 274 274 274 275 276 276 276 276 278 278 277 277 276 276 276 276 276 277 277 278 278 278 277 277 277 276 276
272 273 273 273 272 271 271 271 271 272 273 274 274 274 274 275 274 275 275 276 277 277 277 278 279 278 277 277 276 277 277 277 278 278 278 278 279 278 277 278 278 277 276
275 275 275 273 272 271 271 272 272 273 274 274 274 274 275 275 275 275 276 277 278 278 279 279 279 279 278 278 277 278 278 278 278 279 279 279 279 279 279 279 279 278 277
276 275 275 274 273 272 272 272 273 274 275 275 276 276 276 276 276 277 278 278 279 279 279 280 280 279 278 278 278 278 278 278 279 279 279 279 280 280 281 280 279 279 278
276 275 274 274 273 273 273 273 274 274 275 276 277 277 276 277 278 278 279 279 279 279 280 280 280 279 278 278 278 279 278 278 278 279 280 280 280 280 281 281 280 279 279